"Platform","Reno Beach Station"
"Latitude (deg)",41.68
"Longitude (deg)",-83.25
"Water Depth (m)",7
"Sensor Device","System Power Controller board voltage input"
"Sensor Type","48V solar panel voltage"
"Sensor Units","voltage"
"Measurement","A sample"
"Time means","Time at sample (UTC time zone)"

"Note:","This data was collected for research purposes."
"Note:","Minimal quality checking has been performed so data may contain known or unknown errors."
"Note:","Data provided by NOAA. Please credit NOAA."
"Note:","For more info see www.glerl.noaa.gov/res/recon"

"Time (UTC)","Solar Panel"
"YYYY/MM/DD HH:MM","volts"
2020/01/01 00:01, 0.57
2020/01/01 00:11, 0.57
2020/01/01 00:21, 0.57
2020/01/01 00:31, 0.57
2020/01/01 01:01, 0.57
2020/01/01 01:11, 0.57
2020/01/01 01:21, 0.57
2020/01/01 01:31, 0.57
2020/01/01 02:01, 0.57
2020/01/01 02:11, 0.57
2020/01/01 02:21, 0.57
2020/01/01 02:31, 0.57
2020/01/01 03:01, 0.57
2020/01/01 03:11, 0.57
2020/01/01 03:21, 0.57
2020/01/01 03:31, 0.57
2020/01/01 04:01, 0.57
2020/01/01 04:11, 0.57
2020/01/01 04:21, 0.57
2020/01/01 04:31, 0.57
2020/01/01 05:01, 0.57
2020/01/01 05:11, 0.57
2020/01/01 05:21, 0.57
2020/01/01 05:31, 0.57
2020/01/01 06:01, 0.57
2020/01/01 06:11, 0.57
2020/01/01 06:21, 0.57
2020/01/01 06:31, 0.57
2020/01/01 07:01, 0.57
2020/01/01 07:11, 0.57
2020/01/01 07:21, 0.57
2020/01/01 07:31, 0.57
2020/01/01 08:01, 0.57
2020/01/01 08:11, 0.57
2020/01/01 08:21, 0.57
2020/01/01 08:31, 0.57
2020/01/01 09:01, 0.57
2020/01/01 09:11, 0.57
2020/01/01 09:21, 0.57
2020/01/01 09:31, 0.57
2020/01/01 10:01, 0.57
2020/01/01 10:11, 0.57
2020/01/01 10:21, 0.57
2020/01/01 10:31, 0.57
2020/01/01 11:01, 0.57
2020/01/01 11:11, 0.57
2020/01/01 11:21, 0.57
2020/01/01 11:31, 0.57
2020/01/01 12:01, 0.57
2020/01/01 12:11, 0.57
2020/01/01 12:21, 1.73
2020/01/01 12:31, 9.67
2020/01/01 13:01, 49.73
2020/01/01 13:11, 49.61
2020/01/01 13:21, 50.45
2020/01/01 13:31, 51.73
2020/01/01 14:01, 55.11
2020/01/01 14:11, 55.34
2020/01/01 14:21, 57.06
2020/01/01 14:31, 63.23
2020/01/01 15:01, 70.88
2020/01/01 15:11, 69.69
2020/01/01 15:21, 74.12
2020/01/01 15:31, 76.85
2020/01/01 16:01, 78.65
2020/01/01 16:11, 77.38
2020/01/01 16:21, 78.80
2020/01/01 16:31, 79.94
2020/01/01 17:01, 81.67
2020/01/01 17:11, 79.43
2020/01/01 17:21, 81.09
2020/01/01 17:31, 82.30
2020/01/01 18:01, 83.28
2020/01/01 18:11, 81.46
2020/01/01 18:21, 82.23
2020/01/01 18:31, 83.13
2020/01/01 19:01, 82.64
2020/01/01 19:11, 80.80
2020/01/01 19:21, 81.24
2020/01/01 19:31, 82.66
2020/01/01 20:01, 81.26
2020/01/01 20:11, 76.52
2020/01/01 20:21, 75.93
2020/01/01 20:31, 77.38
2020/01/01 21:01, 71.68
2020/01/01 21:11, 58.14
2020/01/01 21:21, 57.22
2020/01/01 21:31, 55.12
2020/01/01 22:01, 52.22
2020/01/01 22:11, 51.63
2020/01/01 22:21, 51.47
2020/01/01 22:31, 34.08
2020/01/01 23:01, 0.57
2020/01/01 23:11, 0.57
2020/01/01 23:21, 0.57
2020/01/01 23:31, 0.57
2020/01/02 00:01, 0.57
2020/01/02 00:11, 0.57
2020/01/02 00:21, 0.57
2020/01/02 00:31, 0.57
2020/01/02 01:01, 0.57
2020/01/02 01:11, 0.57
2020/01/02 01:21, 0.57
2020/01/02 01:31, 0.57
2020/01/02 02:01, 0.57
2020/01/02 02:11, 0.57
2020/01/02 02:21, 0.57
2020/01/02 02:31, 0.57
2020/01/02 03:01, 0.57
2020/01/02 03:11, 0.57
2020/01/02 03:21, 0.57
2020/01/02 03:31, 0.57
2020/01/02 04:01, 0.57
2020/01/02 04:11, 0.57
2020/01/02 04:21, 0.57
2020/01/02 04:31, 0.57
2020/01/02 05:01, 0.57
2020/01/02 05:11, 0.57
2020/01/02 05:21, 0.57
2020/01/02 05:31, 0.57
2020/01/02 06:01, 0.57
2020/01/02 06:11, 0.57
2020/01/02 06:21, 0.57
2020/01/02 06:31, 0.57
2020/01/02 07:01, 0.57
2020/01/02 07:11, 0.57
2020/01/02 07:21, 0.57
2020/01/02 07:31, 0.57
2020/01/02 08:01, 0.57
2020/01/02 08:11, 0.57
2020/01/02 08:21, 0.57
2020/01/02 08:31, 0.57
2020/01/02 09:01, 0.57
2020/01/02 09:11, 0.57
2020/01/02 09:21, 0.57
2020/01/02 09:31, 0.57
2020/01/02 10:01, 0.57
2020/01/02 10:11, 0.57
2020/01/02 10:21, 0.57
2020/01/02 10:31, 0.57
2020/01/02 11:01, 0.57
2020/01/02 11:11, 0.57
2020/01/02 11:21, 0.57
2020/01/02 11:31, 0.57
2020/01/02 12:01, 0.57
2020/01/02 12:11, 0.57
2020/01/02 12:21, 0.82
2020/01/02 12:31, 2.01
2020/01/02 13:01, 43.43
2020/01/02 13:11, 50.41
2020/01/02 13:21, 50.48
2020/01/02 13:31, 50.66
2020/01/02 14:01, 50.93
2020/01/02 14:11, 50.75
2020/01/02 14:21, 51.12
2020/01/02 14:31, 51.14
2020/01/02 15:01, 52.68
2020/01/02 15:11, 51.80
2020/01/02 15:21, 51.92
2020/01/02 15:31, 53.36
2020/01/02 16:01, 69.28
2020/01/02 16:11, 56.70
2020/01/02 16:21, 69.80
2020/01/02 16:31, 80.40
2020/01/02 17:01, 83.27
2020/01/02 17:11, 80.93
2020/01/02 17:21, 81.79
2020/01/02 17:31, 83.18
2020/01/02 18:01, 81.53
2020/01/02 18:11, 69.85
2020/01/02 18:21, 65.21
2020/01/02 18:31, 78.61
2020/01/02 19:01, 83.62
2020/01/02 19:11, 72.28
2020/01/02 19:21, 67.22
2020/01/02 19:31, 69.53
2020/01/02 20:01, 70.98
2020/01/02 20:11, 62.75
2020/01/02 20:21, 69.25
2020/01/02 20:31, 74.82
2020/01/02 21:01, 53.27
2020/01/02 21:11, 52.03
2020/01/02 21:21, 51.88
2020/01/02 21:31, 51.90
2020/01/02 22:01, 51.50
2020/01/02 22:11, 51.16
2020/01/02 22:21, 33.31
2020/01/02 22:31, 11.17
2020/01/02 23:01, 0.57
2020/01/02 23:11, 0.57
2020/01/02 23:21, 0.57
2020/01/02 23:31, 0.57
2020/01/03 00:01, 0.57
2020/01/03 00:11, 0.57
2020/01/03 00:21, 0.57
2020/01/03 00:31, 0.57
2020/01/03 01:01, 0.57
2020/01/03 01:11, 0.57
2020/01/03 01:21, 0.57
2020/01/03 01:31, 0.57
2020/01/03 02:01, 0.57
2020/01/03 02:11, 0.57
2020/01/03 02:21, 0.57
2020/01/03 02:31, 0.57
2020/01/03 03:01, 0.57
2020/01/03 03:11, 0.57
2020/01/03 03:21, 0.57
2020/01/03 03:31, 0.57
2020/01/03 04:01, 0.57
2020/01/03 04:11, 0.57
2020/01/03 04:21, 0.57
2020/01/03 04:31, 0.57
2020/01/03 05:01, 0.57
2020/01/03 05:11, 0.57
2020/01/03 05:21, 0.57
2020/01/03 05:31, 0.57
2020/01/03 06:01, 0.57
2020/01/03 06:11, 0.57
2020/01/03 06:21, 0.57
2020/01/03 06:31, 0.57
2020/01/03 07:01, 0.57
2020/01/03 07:11, 0.57
2020/01/03 07:21, 0.57
2020/01/03 07:31, 0.57
2020/01/03 08:01, 0.57
2020/01/03 08:11, 0.57
2020/01/03 08:21, 0.57
2020/01/03 08:31, 0.57
2020/01/03 09:01, 0.57
2020/01/03 09:11, 0.57
2020/01/03 09:21, 0.57
2020/01/03 09:31, 0.57
2020/01/03 10:01, 0.57
2020/01/03 10:11, 0.57
2020/01/03 10:21, 0.57
2020/01/03 10:31, 0.57
2020/01/03 11:01, 0.57
2020/01/03 11:11, 0.57
2020/01/03 11:21, 0.57
2020/01/03 11:31, 0.57
2020/01/03 12:01, 0.57
2020/01/03 12:11, 0.57
2020/01/03 12:21, 0.57
2020/01/03 12:31, 0.57
2020/01/03 13:01, 28.75
2020/01/03 13:11, 50.19
2020/01/03 13:21, 50.28
2020/01/03 13:31, 50.45
2020/01/03 14:01, 50.53
2020/01/03 14:11, 50.38
2020/01/03 14:21, 50.47
2020/01/03 14:31, 50.68
2020/01/03 15:01, 51.07
2020/01/03 15:11, 50.71
2020/01/03 15:21, 51.06
2020/01/03 15:31, 51.30
2020/01/03 16:01, 51.68
2020/01/03 16:11, 51.78
2020/01/03 16:21, 51.75
2020/01/03 16:31, 51.94
2020/01/03 17:01, 51.90
2020/01/03 17:11, 51.64
2020/01/03 17:21, 51.80
2020/01/03 17:31, 52.07
2020/01/03 18:01, 52.01
2020/01/03 18:11, 51.67
2020/01/03 18:21, 51.68
2020/01/03 18:31, 51.71
2020/01/03 19:01, 52.27
2020/01/03 19:11, 52.01
2020/01/03 19:21, 51.94
2020/01/03 19:31, 52.12
2020/01/03 20:01, 51.86
2020/01/03 20:11, 51.34
2020/01/03 20:21, 51.20
2020/01/03 20:31, 51.39
2020/01/03 21:01, 51.13
2020/01/03 21:11, 50.72
2020/01/03 21:21, 50.63
2020/01/03 21:31, 50.76
2020/01/03 22:01, 50.60
2020/01/03 22:11, 40.64
2020/01/03 22:21, 28.38
2020/01/03 22:31, 8.13
2020/01/03 23:01, 0.57
2020/01/03 23:11, 0.57
2020/01/03 23:21, 0.57
2020/01/03 23:31, 0.57
2020/01/04 00:01, 0.57
2020/01/04 00:11, 0.57
2020/01/04 00:21, 0.57
2020/01/04 00:31, 0.57
2020/01/04 01:01, 0.57
2020/01/04 01:11, 0.57
2020/01/04 01:21, 0.57
2020/01/04 01:31, 0.57
2020/01/04 02:01, 0.57
2020/01/04 02:11, 0.57
2020/01/04 02:21, 0.57
2020/01/04 02:31, 0.57
2020/01/04 03:01, 0.57
2020/01/04 03:11, 0.57
2020/01/04 03:21, 0.57
2020/01/04 03:31, 0.57
2020/01/04 04:01, 0.57
2020/01/04 04:11, 0.57
2020/01/04 04:21, 0.57
2020/01/04 04:31, 0.57
2020/01/04 05:01, 0.57
2020/01/04 05:11, 0.57
2020/01/04 05:21, 0.57
2020/01/04 05:31, 0.57
2020/01/04 06:01, 0.57
2020/01/04 06:11, 0.57
2020/01/04 06:21, 0.57
2020/01/04 06:31, 0.57
2020/01/04 07:01, 0.57
2020/01/04 07:11, 0.57
2020/01/04 07:21, 0.57
2020/01/04 07:31, 0.57
2020/01/04 08:01, 0.57
2020/01/04 08:11, 0.57
2020/01/04 08:21, 0.57
2020/01/04 08:31, 0.57
2020/01/04 09:01, 0.57
2020/01/04 09:11, 0.57
2020/01/04 09:21, 0.57
2020/01/04 09:31, 0.57
2020/01/04 10:01, 0.57
2020/01/04 10:11, 0.57
2020/01/04 10:21, 0.57
2020/01/04 10:31, 0.57
2020/01/04 11:01, 0.57
2020/01/04 11:11, 0.57
2020/01/04 11:21, 0.57
2020/01/04 11:31, 0.57
2020/01/04 12:01, 0.57
2020/01/04 12:11, 0.57
2020/01/04 12:21, 0.57
2020/01/04 12:31, 0.58
2020/01/04 13:01, 34.08
2020/01/04 13:11, 43.00
2020/01/04 13:21, 49.80
2020/01/04 13:31, 49.94
2020/01/04 14:01, 50.02
2020/01/04 14:11, 49.71
2020/01/04 14:21, 49.83
2020/01/04 14:31, 50.05
2020/01/04 15:01, 50.46
2020/01/04 15:11, 50.08
2020/01/04 15:21, 50.12
2020/01/04 15:31, 50.44
2020/01/04 16:01, 50.45
2020/01/04 16:11, 50.67
2020/01/04 16:21, 50.79
2020/01/04 16:31, 50.91
2020/01/04 17:01, 50.70
2020/01/04 17:11, 50.39
2020/01/04 17:21, 50.28
2020/01/04 17:31, 50.48
2020/01/04 18:01, 50.74
2020/01/04 18:11, 50.35
2020/01/04 18:21, 50.29
2020/01/04 18:31, 50.56
2020/01/04 19:01, 51.66
2020/01/04 19:11, 51.39
2020/01/04 19:21, 51.21
2020/01/04 19:31, 51.27
2020/01/04 20:01, 50.75
2020/01/04 20:11, 50.33
2020/01/04 20:21, 50.22
2020/01/04 20:31, 50.43
2020/01/04 21:01, 50.17
2020/01/04 21:11, 49.79
2020/01/04 21:21, 49.82
2020/01/04 21:31, 49.94
2020/01/04 22:01, 49.89
2020/01/04 22:11, 49.62
2020/01/04 22:21, 22.39
2020/01/04 22:31, 5.54
2020/01/04 23:01, 0.57
2020/01/04 23:11, 0.57
2020/01/04 23:21, 0.57
2020/01/04 23:31, 0.57
2020/01/05 00:01, 0.57
2020/01/05 00:11, 0.57
2020/01/05 00:21, 0.57
2020/01/05 00:31, 0.57
2020/01/05 01:01, 0.57
2020/01/05 01:11, 0.57
2020/01/05 01:21, 0.57
2020/01/05 01:31, 0.57
2020/01/05 02:01, 0.57
2020/01/05 02:11, 0.57
2020/01/05 02:21, 0.57
2020/01/05 02:31, 0.57
2020/01/05 03:01, 0.57
2020/01/05 03:11, 0.57
2020/01/05 03:21, 0.57
2020/01/05 03:31, 0.57
2020/01/05 04:01, 0.57
2020/01/05 04:11, 0.57
2020/01/05 04:21, 0.57
2020/01/05 04:31, 0.57
2020/01/05 05:01, 0.57
2020/01/05 05:11, 0.57
2020/01/05 05:21, 0.57
2020/01/05 05:31, 0.57
2020/01/05 06:01, 0.57
2020/01/05 06:11, 0.57
2020/01/05 06:21, 0.57
2020/01/05 06:31, 0.57
2020/01/05 07:01, 0.57
2020/01/05 07:11, 0.57
2020/01/05 07:21, 0.57
2020/01/05 07:31, 0.57
2020/01/05 08:01, 0.57
2020/01/05 08:11, 0.57
2020/01/05 08:21, 0.57
2020/01/05 08:31, 0.57
2020/01/05 09:01, 0.57
2020/01/05 09:11, 0.57
2020/01/05 09:21, 0.57
2020/01/05 09:31, 0.57
2020/01/05 10:01, 0.57
2020/01/05 10:11, 0.57
2020/01/05 10:21, 0.57
2020/01/05 10:31, 0.57
2020/01/05 11:01, 0.57
2020/01/05 11:11, 0.57
2020/01/05 11:21, 0.57
2020/01/05 11:31, 0.57
2020/01/05 12:01, 0.57
2020/01/05 12:11, 0.57
2020/01/05 12:21, 0.57
2020/01/05 12:31, 1.37
2020/01/05 13:01, 49.66
2020/01/05 13:11, 49.36
2020/01/05 13:21, 49.56
2020/01/05 13:31, 49.67
2020/01/05 14:01, 49.68
2020/01/05 14:11, 49.45
2020/01/05 14:21, 49.66
2020/01/05 14:31, 49.77
2020/01/05 15:01, 50.15
2020/01/05 15:11, 49.82
2020/01/05 15:21, 50.03
2020/01/05 15:31, 50.44
2020/01/05 16:01, 50.91
2020/01/05 16:11, 50.74
2020/01/05 16:21, 50.71
2020/01/05 16:31, 51.27
2020/01/05 17:01, 51.83
2020/01/05 17:11, 51.71
2020/01/05 17:21, 52.07
2020/01/05 17:31, 52.15
2020/01/05 18:01, 53.90
2020/01/05 18:11, 52.89
2020/01/05 18:21, 69.45
2020/01/05 18:31, 53.19
2020/01/05 19:01, 54.16
2020/01/05 19:11, 52.20
2020/01/05 19:21, 52.00
2020/01/05 19:31, 52.78
2020/01/05 20:01, 52.08
2020/01/05 20:11, 51.51
2020/01/05 20:21, 51.35
2020/01/05 20:31, 51.27
2020/01/05 21:01, 51.15
2020/01/05 21:11, 50.85
2020/01/05 21:21, 50.80
2020/01/05 21:31, 50.95
2020/01/05 22:01, 50.81
2020/01/05 22:11, 50.52
2020/01/05 22:21, 50.60
2020/01/05 22:31, 17.75
2020/01/05 23:01, 0.57
2020/01/05 23:11, 0.57
2020/01/05 23:21, 0.57
2020/01/05 23:31, 0.57
2020/01/06 00:01, 0.57
2020/01/06 00:11, 0.57
2020/01/06 00:21, 0.57
2020/01/06 00:31, 0.57
2020/01/06 01:01, 0.57
2020/01/06 01:11, 0.57
2020/01/06 01:21, 0.57
2020/01/06 01:31, 0.57
2020/01/06 02:01, 0.57
2020/01/06 02:11, 0.57
2020/01/06 02:21, 0.57
2020/01/06 02:31, 0.57
2020/01/06 03:01, 0.57
2020/01/06 03:11, 0.57
2020/01/06 03:21, 0.57
2020/01/06 03:31, 0.57
2020/01/06 04:01, 0.57
2020/01/06 04:11, 0.57
2020/01/06 04:21, 0.57
2020/01/06 04:31, 0.57
2020/01/06 05:01, 0.57
2020/01/06 05:11, 0.57
2020/01/06 05:21, 0.57
2020/01/06 05:31, 0.57
2020/01/06 06:01, 0.57
2020/01/06 06:11, 0.57
2020/01/06 06:21, 0.57
2020/01/06 06:31, 0.57
2020/01/06 07:01, 0.57
2020/01/06 07:11, 0.57
2020/01/06 07:21, 0.57
2020/01/06 07:31, 0.57
2020/01/06 08:01, 0.57
2020/01/06 08:11, 0.57
2020/01/06 08:21, 0.57
2020/01/06 08:31, 0.57
2020/01/06 09:01, 0.57
2020/01/06 09:11, 0.57
2020/01/06 09:21, 0.57
2020/01/06 09:31, 0.57
2020/01/06 10:01, 0.57
2020/01/06 10:11, 0.57
2020/01/06 10:21, 0.57
2020/01/06 10:31, 0.57
2020/01/06 11:01, 0.57
2020/01/06 11:11, 0.57
2020/01/06 11:21, 0.57
2020/01/06 11:31, 0.57
2020/01/06 12:01, 0.57
2020/01/06 12:11, 0.58
2020/01/06 12:21, 2.91
2020/01/06 12:31, 16.78
2020/01/06 13:01, 49.65
2020/01/06 13:11, 49.76
2020/01/06 13:21, 50.85
2020/01/06 13:31, 52.26
2020/01/06 14:01, 54.56
2020/01/06 14:11, 54.73
2020/01/06 14:21, 55.39
2020/01/06 14:31, 56.40
2020/01/06 15:01, 58.04
2020/01/06 15:11, 58.00
2020/01/06 15:21, 60.81
2020/01/06 15:31, 63.88
2020/01/06 16:01, 69.19
2020/01/06 16:11, 69.58
2020/01/06 16:21, 72.21
2020/01/06 16:31, 74.42
2020/01/06 17:01, 76.70
2020/01/06 17:11, 75.64
2020/01/06 17:21, 77.04
2020/01/06 17:31, 78.71
2020/01/06 18:01, 80.00
2020/01/06 18:11, 77.73
2020/01/06 18:21, 79.43
2020/01/06 18:31, 80.94
2020/01/06 19:01, 81.62
2020/01/06 19:11, 78.40
2020/01/06 19:21, 79.93
2020/01/06 19:31, 80.95
2020/01/06 20:01, 79.97
2020/01/06 20:11, 75.33
2020/01/06 20:21, 75.66
2020/01/06 20:31, 76.58
2020/01/06 21:01, 71.05
2020/01/06 21:11, 60.24
2020/01/06 21:21, 57.39
2020/01/06 21:31, 54.55
2020/01/06 22:01, 51.98
2020/01/06 22:11, 51.60
2020/01/06 22:21, 51.51
2020/01/06 22:31, 51.61
2020/01/06 23:01, 0.57
2020/01/06 23:11, 0.57
2020/01/06 23:21, 0.57
2020/01/06 23:31, 0.57
2020/01/07 00:01, 0.57
2020/01/07 00:11, 0.57
2020/01/07 00:21, 0.57
2020/01/07 00:31, 0.57
2020/01/07 01:01, 0.57
2020/01/07 01:11, 0.57
2020/01/07 01:21, 0.57
2020/01/07 01:31, 0.57
2020/01/07 02:01, 0.57
2020/01/07 02:11, 0.57
2020/01/07 02:21, 0.57
2020/01/07 02:31, 0.57
2020/01/07 03:01, 0.57
2020/01/07 03:11, 0.57
2020/01/07 03:21, 0.57
2020/01/07 03:31, 0.57
2020/01/07 04:01, 0.57
2020/01/07 04:11, 0.57
2020/01/07 04:21, 0.57
2020/01/07 04:31, 0.57
2020/01/07 05:01, 0.57
2020/01/07 05:11, 0.57
2020/01/07 05:21, 0.57
2020/01/07 05:31, 0.57
2020/01/07 06:01, 0.57
2020/01/07 06:11, 0.57
2020/01/07 06:21, 0.57
2020/01/07 06:31, 0.57
2020/01/07 07:01, 0.57
2020/01/07 07:11, 0.57
2020/01/07 07:21, 0.57
2020/01/07 07:31, 0.57
2020/01/07 08:01, 0.57
2020/01/07 08:11, 0.57
2020/01/07 08:21, 0.57
2020/01/07 08:31, 0.57
2020/01/07 09:01, 0.57
2020/01/07 09:11, 0.57
2020/01/07 09:21, 0.57
2020/01/07 09:31, 0.57
2020/01/07 10:01, 0.57
2020/01/07 10:11, 0.57
2020/01/07 10:21, 0.57
2020/01/07 10:31, 0.57
2020/01/07 11:01, 0.57
2020/01/07 11:11, 0.57
2020/01/07 11:21, 0.57
2020/01/07 11:31, 0.57
2020/01/07 12:01, 0.57
2020/01/07 12:11, 0.57
2020/01/07 12:21, 0.57
2020/01/07 12:31, 2.52
2020/01/07 13:01, 50.74
2020/01/07 13:11, 50.50
2020/01/07 13:21, 50.65
2020/01/07 13:31, 50.88
2020/01/07 14:01, 51.89
2020/01/07 14:11, 55.58
2020/01/07 14:21, 56.93
2020/01/07 14:31, 70.89
2020/01/07 15:01, 69.22
2020/01/07 15:11, 69.94
2020/01/07 15:21, 80.83
2020/01/07 15:31, 78.57
2020/01/07 16:01, 79.15
2020/01/07 16:11, 79.20
2020/01/07 16:21, 78.18
2020/01/07 16:31, 74.36
2020/01/07 17:01, 71.75
2020/01/07 17:11, 72.03
2020/01/07 17:21, 78.47
2020/01/07 17:31, 85.86
2020/01/07 18:01, 85.09
2020/01/07 18:11, 82.92
2020/01/07 18:21, 71.51
2020/01/07 18:31, 84.41
2020/01/07 19:01, 80.24
2020/01/07 19:11, 61.17
2020/01/07 19:21, 74.32
2020/01/07 19:31, 73.50
2020/01/07 20:01, 69.53
2020/01/07 20:11, 53.57
2020/01/07 20:21, 53.38
2020/01/07 20:31, 53.45
2020/01/07 21:01, 52.36
2020/01/07 21:11, 52.37
2020/01/07 21:21, 52.21
2020/01/07 21:31, 52.08
2020/01/07 22:01, 51.66
2020/01/07 22:11, 51.22
2020/01/07 22:21, 51.21
2020/01/07 22:31, 14.47
2020/01/07 23:01, 0.57
2020/01/07 23:11, 0.57
2020/01/07 23:21, 0.57
2020/01/07 23:31, 0.57
2020/01/08 00:01, 0.57
2020/01/08 00:11, 0.57
2020/01/08 00:21, 0.57
2020/01/08 00:31, 0.57
2020/01/08 01:01, 0.57
2020/01/08 01:11, 0.57
2020/01/08 01:21, 0.57
2020/01/08 01:31, 0.57
2020/01/08 02:01, 0.57
2020/01/08 02:11, 0.57
2020/01/08 02:21, 0.57
2020/01/08 02:31, 0.57
2020/01/08 03:01, 0.57
2020/01/08 03:11, 0.57
2020/01/08 03:21, 0.57
2020/01/08 03:31, 0.57
2020/01/08 04:01, 0.57
2020/01/08 04:11, 0.57
2020/01/08 04:21, 0.57
2020/01/08 04:31, 0.57
2020/01/08 05:01, 0.57
2020/01/08 05:11, 0.57
2020/01/08 05:21, 0.57
2020/01/08 05:31, 0.57
2020/01/08 06:01, 0.57
2020/01/08 06:11, 0.57
2020/01/08 06:21, 0.57
2020/01/08 06:31, 0.57
2020/01/08 07:01, 0.57
2020/01/08 07:11, 0.57
2020/01/08 07:21, 0.57
2020/01/08 07:31, 0.57
2020/01/08 08:01, 0.57
2020/01/08 08:11, 0.57
2020/01/08 08:21, 0.57
2020/01/08 08:31, 0.57
2020/01/08 09:01, 0.57
2020/01/08 09:11, 0.57
2020/01/08 09:21, 0.57
2020/01/08 09:31, 0.57
2020/01/08 10:01, 0.57
2020/01/08 10:11, 0.57
2020/01/08 10:21, 0.57
2020/01/08 10:31, 0.57
2020/01/08 11:01, 0.57
2020/01/08 11:11, 0.57
2020/01/08 11:21, 0.57
2020/01/08 11:31, 0.57
2020/01/08 12:01, 0.57
2020/01/08 12:11, 0.57
2020/01/08 12:21, 0.72
2020/01/08 12:31, 5.28
2020/01/08 13:01, 50.50
2020/01/08 13:11, 50.35
2020/01/08 13:21, 50.47
2020/01/08 13:31, 50.70
2020/01/08 14:01, 50.77
2020/01/08 14:11, 50.62
2020/01/08 14:21, 51.52
2020/01/08 14:31, 52.31
2020/01/08 15:01, 52.02
2020/01/08 15:11, 51.63
2020/01/08 15:21, 51.57
2020/01/08 15:31, 51.89
2020/01/08 16:01, 52.42
2020/01/08 16:11, 52.35
2020/01/08 16:21, 52.86
2020/01/08 16:31, 53.28
2020/01/08 17:01, 53.77
2020/01/08 17:11, 78.41
2020/01/08 17:21, 55.35
2020/01/08 17:31, 56.56
2020/01/08 18:01, 55.92
2020/01/08 18:11, 55.12
2020/01/08 18:21, 54.20
2020/01/08 18:31, 61.34
2020/01/08 19:01, 67.32
2020/01/08 19:11, 84.75
2020/01/08 19:21, 86.35
2020/01/08 19:31, 85.71
2020/01/08 20:01, 84.21
2020/01/08 20:11, 80.30
2020/01/08 20:21, 80.69
2020/01/08 20:31, 82.95
2020/01/08 21:01, 77.84
2020/01/08 21:11, 63.64
2020/01/08 21:21, 56.79
2020/01/08 21:31, 64.22
2020/01/08 22:01, 52.53
2020/01/08 22:11, 51.65
2020/01/08 22:21, 51.41
2020/01/08 22:31, 51.46
2020/01/08 23:01, 0.66
2020/01/08 23:11, 0.57
2020/01/08 23:21, 0.57
2020/01/08 23:31, 0.57
2020/01/09 00:01, 0.57
2020/01/09 00:11, 0.57
2020/01/09 00:21, 0.57
2020/01/09 00:31, 0.57
2020/01/09 01:01, 0.57
2020/01/09 01:11, 0.57
2020/01/09 01:21, 0.57
2020/01/09 01:31, 0.57
2020/01/09 02:01, 0.57
2020/01/09 02:11, 0.57
2020/01/09 02:21, 0.57
2020/01/09 02:31, 0.57
2020/01/09 03:01, 0.57
2020/01/09 03:11, 0.57
2020/01/09 03:21, 0.57
2020/01/09 03:31, 0.57
2020/01/09 04:01, 0.57
2020/01/09 04:11, 0.57
2020/01/09 04:21, 0.57
2020/01/09 04:31, 0.57
2020/01/09 05:01, 0.57
2020/01/09 05:11, 0.57
2020/01/09 05:21, 0.57
2020/01/09 05:31, 0.57
2020/01/09 06:01, 0.57
2020/01/09 06:11, 0.57
2020/01/09 06:21, 0.57
2020/01/09 06:31, 0.57
2020/01/09 07:01, 0.57
2020/01/09 07:11, 0.57
2020/01/09 07:21, 0.57
2020/01/09 07:31, 0.57
2020/01/09 08:01, 0.57
2020/01/09 08:11, 0.57
2020/01/09 08:21, 0.57
2020/01/09 08:31, 0.57
2020/01/09 09:01, 0.57
2020/01/09 09:11, 0.57
2020/01/09 09:21, 0.57
2020/01/09 09:31, 0.57
2020/01/09 10:01, 0.57
2020/01/09 10:11, 0.57
2020/01/09 10:21, 0.57
2020/01/09 10:31, 0.57
2020/01/09 11:01, 0.57
2020/01/09 11:11, 0.57
2020/01/09 11:21, 0.57
2020/01/09 11:31, 0.57
2020/01/09 12:01, 0.57
2020/01/09 12:11, 0.63
2020/01/09 12:21, 2.05
2020/01/09 12:31, 8.39
2020/01/09 13:01, 50.44
2020/01/09 13:11, 50.19
2020/01/09 13:21, 50.38
2020/01/09 13:31, 51.00
2020/01/09 14:01, 57.97
2020/01/09 14:11, 55.10
2020/01/09 14:21, 53.57
2020/01/09 14:31, 60.95
2020/01/09 15:01, 56.81
2020/01/09 15:11, 60.42
2020/01/09 15:21, 67.04
2020/01/09 15:31, 81.03
2020/01/09 16:01, 57.64
2020/01/09 16:11, 54.56
2020/01/09 16:21, 54.55
2020/01/09 16:31, 57.96
2020/01/09 17:01, 80.83
2020/01/09 17:11, 73.87
2020/01/09 17:21, 75.48
2020/01/09 17:31, 74.01
2020/01/09 18:01, 81.62
2020/01/09 18:11, 78.22
2020/01/09 18:21, 80.83
2020/01/09 18:31, 78.44
2020/01/09 19:01, 77.22
2020/01/09 19:11, 69.62
2020/01/09 19:21, 71.09
2020/01/09 19:31, 72.44
2020/01/09 20:01, 64.31
2020/01/09 20:11, 55.85
2020/01/09 20:21, 62.79
2020/01/09 20:31, 71.47
2020/01/09 21:01, 60.32
2020/01/09 21:11, 57.58
2020/01/09 21:21, 53.24
2020/01/09 21:31, 53.02
2020/01/09 22:01, 51.87
2020/01/09 22:11, 51.38
2020/01/09 22:21, 51.28
2020/01/09 22:31, 29.61
2020/01/09 23:01, 0.57
2020/01/09 23:11, 0.57
2020/01/09 23:21, 0.57
2020/01/09 23:31, 0.57
2020/01/10 00:01, 0.57
2020/01/10 00:11, 0.57
2020/01/10 00:21, 0.57
2020/01/10 00:31, 0.57
2020/01/10 01:01, 0.57
2020/01/10 01:11, 0.57
2020/01/10 01:21, 0.57
2020/01/10 01:31, 0.57
2020/01/10 02:01, 0.57
2020/01/10 02:11, 0.57
2020/01/10 02:21, 0.57
2020/01/10 02:31, 0.57
2020/01/10 03:01, 0.57
2020/01/10 03:11, 0.57
2020/01/10 03:21, 0.57
2020/01/10 03:31, 0.57
2020/01/10 04:01, 0.57
2020/01/10 04:11, 0.57
2020/01/10 04:21, 0.57
2020/01/10 04:31, 0.57
2020/01/10 05:01, 0.57
2020/01/10 05:11, 0.57
2020/01/10 05:21, 0.57
2020/01/10 05:31, 0.57
2020/01/10 06:01, 0.57
2020/01/10 06:11, 0.57
2020/01/10 06:21, 0.57
2020/01/10 06:31, 0.57
2020/01/10 07:01, 0.57
2020/01/10 07:11, 0.57
2020/01/10 07:21, 0.57
2020/01/10 07:31, 0.57
2020/01/10 08:01, 0.57
2020/01/10 08:11, 0.57
2020/01/10 08:21, 0.57
2020/01/10 08:31, 0.57
2020/01/10 09:01, 0.57
2020/01/10 09:11, 0.57
2020/01/10 09:21, 0.57
2020/01/10 09:31, 0.57
2020/01/10 10:01, 0.57
2020/01/10 10:11, 0.57
2020/01/10 10:21, 0.57
2020/01/10 10:31, 0.57
2020/01/10 11:01, 0.57
2020/01/10 11:11, 0.57
2020/01/10 11:21, 0.57
2020/01/10 11:31, 0.57
2020/01/10 12:01, 0.57
2020/01/10 12:11, 0.57
2020/01/10 12:21, 0.57
2020/01/10 12:31, 0.58
2020/01/10 13:01, 22.07
2020/01/10 13:11, 50.11
2020/01/10 13:21, 50.23
2020/01/10 13:31, 50.43
2020/01/10 14:01, 50.44
2020/01/10 14:11, 50.19
2020/01/10 14:21, 50.33
2020/01/10 14:31, 50.44
2020/01/10 15:01, 50.50
2020/01/10 15:11, 50.27
2020/01/10 15:21, 50.43
2020/01/10 15:31, 50.67
2020/01/10 16:01, 50.86
2020/01/10 16:11, 50.55
2020/01/10 16:21, 50.47
2020/01/10 16:31, 50.69
2020/01/10 17:01, 50.83
2020/01/10 17:11, 50.76
2020/01/10 17:21, 51.09
2020/01/10 17:31, 51.22
2020/01/10 18:01, 51.65
2020/01/10 18:11, 51.59
2020/01/10 18:21, 51.65
2020/01/10 18:31, 51.62
2020/01/10 19:01, 51.20
2020/01/10 19:11, 50.83
2020/01/10 19:21, 50.75
2020/01/10 19:31, 50.77
2020/01/10 20:01, 50.76
2020/01/10 20:11, 50.59
2020/01/10 20:21, 50.67
2020/01/10 20:31, 50.68
2020/01/10 21:01, 50.46
2020/01/10 21:11, 50.19
2020/01/10 21:21, 50.24
2020/01/10 21:31, 50.44
2020/01/10 22:01, 50.32
2020/01/10 22:11, 50.08
2020/01/10 22:21, 31.74
2020/01/10 22:31, 19.28